"startDT [UTC]","vpos","CH4 [ppm]","stdev(CH4) [ppm]","CO2 [ppm]","stdev(CO2) [ppm]","H2O [ppm]","stdev(H2O)","p_LGR [torr]","T_LGR [C]","mt1_LGR [us]","mt2_LGR [us]","T_ECpre [C]","T_EC1 [C]","T_EC2 [C]","p_inlet [hPa]","p_in [hPa]","p_out [hPa]","T_inlet [C]","RH_inlet [%]","dwpt_inlet [C]","T_vent [C]","RH_vent [%]","dwpt_vent [C]","flow_vent [l min-1]","flow_inlet [l min-1]","dwpt_sample [C]","T_room [C]"
2012-07-30 00:00:00,0.0,1.9511,0.0010,380.89,0.35,204.6,29.1,137.99,34.49,24.64,36.44,1.10,16.55,-25.45,-51,555,-937,29.5,23.0,6.2,29.4,1.2,-30.5,5.73,2.39,-26.3,32.9
2012-07-30 00:01:00,0.0,1.9521,0.0009,380.64,0.25,203.4,31.4,137.99,34.49,24.64,36.43,1.10,14.27,-25.45,-51,555,-937,29.5,23.3,6.4,29.4,1.2,-30.5,5.73,2.39,-26.3,32.9
2012-07-30 00:02:00,0.0,1.9506,0.0011,380.82,0.32,195.8,28.9,137.98,34.49,24.64,36.44,1.01,11.93,-25.45,-51,555,-937,29.5,22.7,6.0,29.5,1.2,-30.5,5.73,2.38,-26.3,32.9
2012-07-30 00:03:00,0.0,1.9508,0.0015,381.06,0.33,201.6,30.3,137.99,34.49,24.65,36.43,1.08,9.66,-25.43,-51,555,-937,29.5,22.9,6.1,29.5,1.2,-30.5,5.73,2.38,-26.3,32.9
2012-07-30 00:04:00,0.0,1.9519,0.0008,380.70,0.25,201.2,29.1,137.98,34.49,24.65,36.44,1.12,7.46,-25.42,-51,555,-937,29.5,23.1,6.3,29.5,1.2,-30.5,5.73,2.37,-26.3,32.9
2012-07-30 00:05:00,0.0,1.9513,0.0010,380.72,0.29,199.2,25.4,137.98,34.49,24.65,36.43,1.02,5.36,-25.40,-51,555,-937,29.5,23.1,6.2,29.5,1.2,-30.5,5.73,2.37,-26.3,32.9
2012-07-30 00:06:00,0.0,1.9519,0.0011,380.60,0.33,208.6,28.3,137.98,34.49,24.65,36.44,1.06,3.37,-25.38,-51,555,-937,29.5,23.2,6.3,29.5,1.2,-30.4,5.73,2.38,-26.3,32.9
2012-07-30 00:07:00,0.0,1.9524,0.0010,380.64,0.25,193.2,23.3,137.99,34.49,24.65,36.44,1.13,1.48,-25.36,-51,555,-937,29.5,23.2,6.3,29.4,1.2,-30.5,5.73,2.38,-26.3,32.9
2012-07-30 00:08:00,0.0,1.9524,0.0010,380.86,0.27,200.4,27.4,137.99,34.49,24.64,36.43,1.03,-0.32,-25.35,-51,555,-937,29.5,23.1,6.2,29.4,1.2,-30.5,5.73,2.39,-26.3,32.9
2012-07-30 00:09:00,0.0,1.9519,0.0010,380.60,0.41,194.1,33.0,137.99,34.49,24.65,36.44,1.04,-1.89,-25.33,-51,555,-936,29.5,23.2,6.3,29.4,1.2,-30.4,5.73,2.39,-26.3,32.9
2012-07-30 00:10:00,0.0,1.9511,0.0010,380.87,0.31,203.2,26.0,137.99,34.49,24.65,36.44,1.12,-2.89,-25.31,-51,555,-937,29.5,23.1,6.3,29.5,1.2,-30.3,5.73,2.38,-26.3,32.9
2012-07-30 00:11:00,0.0,1.9522,0.0009,380.89,0.34,206.0,27.3,137.98,34.49,24.65,36.44,1.06,-4.19,-25.30,-51,555,-937,29.5,23.2,6.3,29.5,1.2,-30.3,5.73,2.37,-26.3,32.8
2012-07-30 00:12:00,0.0,1.9527,0.0010,380.86,0.38,203.3,21.6,137.98,34.48,24.65,36.44,1.01,-5.77,-25.29,-51,555,-937,29.5,23.2,6.3,29.5,1.2,-30.3,5.73,2.37,-26.3,32.9
2012-07-30 00:13:00,0.0,1.9527,0.0009,380.64,0.33,200.5,29.2,137.99,34.48,24.65,36.44,1.08,-7.10,-25.28,-51,555,-937,29.5,23.3,6.4,29.5,1.2,-30.2,5.73,2.37,-26.3,32.8
2012-07-30 00:14:00,0.0,1.9532,0.0011,380.39,0.37,200.9,32.0,137.99,34.48,24.65,36.44,1.10,-8.28,-25.27,-51,555,-937,29.5,23.9,6.8,29.5,1.2,-30.3,5.73,2.38,-26.2,32.8
2012-07-30 00:15:00,0.0,1.9542,0.0009,380.05,0.28,198.1,25.5,137.98,34.48,24.65,36.44,1.05,-9.49,-25.26,-51,555,-937,29.5,24.1,6.9,29.5,1.2,-30.1,5.73,2.38,-26.2,32.9
2012-07-30 00:16:00,0.0,1.9551,0.0008,379.71,0.35,205.7,33.6,137.98,34.48,24.64,36.45,1.02,-10.62,-25.26,-51,555,-937,29.5,24.5,7.1,29.5,1.2,-30.3,5.73,2.39,-26.2,32.9
2012-07-30 00:17:00,0.0,1.9540,0.0010,380.25,0.39,208.1,29.9,137.99,34.48,24.65,36.45,1.08,-11.69,-25.25,-51,555,-937,29.5,23.6,6.6,29.5,1.2,-30.2,5.73,2.38,-26.2,32.9
2012-07-30 00:18:00,0.0,1.9547,0.0010,380.64,0.30,202.8,27.3,137.98,34.48,24.65,36.44,1.09,-12.67,-25.25,-51,555,-937,29.5,23.8,6.7,29.5,1.2,-30.2,5.73,2.37,-26.2,32.9
2012-07-30 00:19:00,0.0,1.9557,0.0012,380.56,0.30,205.9,28.9,137.98,34.48,24.65,36.44,1.02,-13.59,-25.25,-51,555,-937,29.5,23.8,6.7,29.5,1.2,-30.3,5.73,2.36,-26.2,32.9
2012-07-30 00:20:00,0.0,1.9556,0.0010,380.68,0.31,212.2,27.6,137.99,34.48,24.65,36.44,1.02,-14.43,-25.25,-51,555,-937,29.5,23.8,6.7,29.5,1.2,-30.3,5.73,2.37,-26.2,32.9
2012-07-30 00:21:00,0.0,1.9563,0.0010,380.39,0.28,208.7,31.4,137.98,34.47,24.64,36.44,1.10,-15.28,-25.25,-51,555,-937,29.5,23.9,6.8,29.5,1.2,-30.2,5.73,2.38,-26.2,33.0
2012-07-30 00:22:00,0.0,1.9559,0.0009,380.67,0.29,207.3,27.8,137.98,34.47,24.65,36.44,1.08,-16.07,-25.25,-51,555,-937,29.6,23.8,6.7,29.5,1.2,-30.3,5.73,2.38,-26.2,33.0
2012-07-30 00:23:00,0.0,1.9574,0.0010,380.56,0.24,204.4,27.7,137.98,34.47,24.64,36.44,1.00,-16.81,-25.25,-51,555,-937,29.6,24.2,6.9,29.5,1.2,-30.2,5.73,2.38,-26.2,33.0
2012-07-30 00:24:00,0.0,1.9581,0.0009,380.27,0.37,208.3,23.5,137.98,34.47,24.65,36.43,1.03,-17.50,-25.26,-51,555,-937,29.6,24.5,7.2,29.5,1.2,-30.2,5.73,2.38,-26.2,32.9
2012-07-30 00:25:00,0.0,1.9595,0.0012,380.29,0.29,207.0,31.3,137.98,34.47,24.65,36.45,1.08,-18.16,-25.26,-51,555,-936,29.5,24.6,7.2,29.5,1.2,-30.2,5.73,2.37,-26.2,32.9
2012-07-30 00:26:00,0.0,1.9602,0.0012,379.92,0.32,210.8,33.1,137.99,34.47,24.65,36.43,1.09,-18.78,-25.27,-51,555,-937,29.5,24.7,7.2,29.5,1.2,-30.3,5.73,2.37,-26.2,32.9
2012-07-30 00:27:00,0.0,1.9579,0.0009,380.25,0.37,207.0,30.3,137.99,34.47,24.64,36.44,1.03,-19.37,-25.28,-51,555,-937,29.5,24.1,6.9,29.5,1.2,-30.4,5.73,2.37,-26.2,32.9
2012-07-30 00:28:00,0.0,1.9560,0.0009,380.53,0.34,210.0,25.2,137.98,34.47,24.65,36.44,1.00,-19.93,-25.28,-51,555,-937,29.6,23.9,6.8,29.5,1.2,-30.5,5.73,2.37,-26.2,32.8
2012-07-30 00:29:00,0.0,1.9553,0.0012,380.43,0.26,207.2,27.0,137.98,34.47,24.65,36.44,1.06,-20.45,-25.29,-51,555,-937,29.5,23.7,6.7,29.5,1.2,-30.5,5.73,2.38,-26.2,32.9
2012-07-30 00:30:00,0.0,1.9548,0.0007,380.77,0.35,208.0,27.8,137.99,34.47,24.65,36.44,1.09,-20.92,-25.30,-51,555,-937,29.6,23.5,6.6,29.5,1.2,-30.5,5.73,2.39,-26.2,32.9
2012-07-30 00:31:00,0.0,1.9544,0.0010,380.45,0.32,209.5,27.2,137.98,34.47,24.65,36.44,1.04,-21.38,-25.30,-51,555,-937,29.6,23.6,6.6,29.5,1.2,-30.5,5.73,2.38,-26.2,32.9
2012-07-30 00:32:00,0.0,1.9546,0.0010,380.49,0.32,219.1,24.7,137.98,34.47,24.64,36.44,0.99,-21.83,-25.32,-51,555,-937,29.6,23.6,6.6,29.5,1.2,-30.5,5.73,2.37,-26.2,32.9
2012-07-30 00:33:00,0.0,1.9545,0.0009,380.62,0.25,214.0,29.1,137.98,34.47,24.65,36.44,1.05,-22.26,-25.33,-51,555,-937,29.6,23.5,6.5,29.5,1.2,-30.5,5.73,2.36,-26.2,32.9
2012-07-30 00:34:00,0.0,1.9547,0.0010,380.36,0.41,207.5,27.1,137.98,34.47,24.64,36.44,1.09,-22.66,-25.34,-51,555,-937,29.6,23.9,6.8,29.5,1.2,-30.5,5.73,2.37,-26.2,32.9
2012-07-30 00:35:00,0.0,1.9548,0.0010,380.38,0.53,212.6,29.8,137.98,34.47,24.65,36.44,1.06,-23.03,-25.34,-51,555,-937,29.6,23.6,6.6,29.5,1.2,-30.4,5.73,2.37,-26.3,32.9
2012-07-30 00:36:00,0.0,1.9551,0.0011,380.91,0.33,210.6,29.8,137.98,34.47,24.64,36.44,0.99,-23.39,-25.36,-51,555,-937,29.6,23.4,6.5,29.5,1.2,-30.5,5.73,2.38,-26.3,32.9
2012-07-30 00:37:00,0.0,1.9532,0.0009,380.89,0.28,206.5,29.6,137.98,34.47,24.65,36.44,1.02,-23.72,-25.36,-51,555,-937,29.6,23.5,6.6,29.5,1.2,-30.4,5.73,2.38,-26.3,33.0
2012-07-30 00:38:00,0.0,1.9531,0.0011,380.49,0.39,207.8,29.2,137.98,34.47,24.65,36.44,1.08,-24.04,-25.38,-51,555,-937,29.6,23.9,6.8,29.5,1.2,-30.5,5.73,2.37,-26.3,33.0
2012-07-30 00:39:00,0.0,1.9541,0.0010,380.04,0.49,213.3,26.9,137.98,34.47,24.65,36.44,1.08,-24.33,-25.39,-51,555,-937,29.6,23.8,6.8,29.5,1.2,-30.4,5.73,2.36,-26.3,33.0
2012-07-30 00:40:00,0.0,1.9541,0.0011,380.83,0.29,208.7,28.7,137.98,34.47,24.65,36.44,1.00,-24.62,-25.40,-51,555,-937,29.6,23.2,6.4,29.5,1.2,-30.5,5.73,2.36,-26.3,33.0
2012-07-30 00:41:00,0.0,1.9539,0.0010,380.34,0.52,211.0,30.9,137.98,34.47,24.65,36.43,0.99,-24.88,-25.41,-51,555,-937,29.6,23.8,6.8,29.5,1.2,-30.6,5.73,2.37,-26.3,33.0
2012-07-30 00:42:00,0.0,1.9536,0.0009,380.64,0.34,210.1,27.9,137.98,34.47,24.65,36.44,1.05,-25.14,-25.43,-51,555,-937,29.6,23.3,6.5,29.5,1.2,-30.5,5.73,2.38,-26.3,33.0
2012-07-30 00:43:00,0.0,1.9537,0.0009,380.24,0.41,205.3,24.4,137.98,34.47,24.65,36.44,1.07,-25.37,-25.44,-51,555,-937,29.6,24.1,6.9,29.5,1.2,-30.5,5.73,2.38,-26.3,33.0
2012-07-30 00:44:00,0.0,1.9546,0.0011,379.77,0.37,207.0,24.2,137.98,34.47,24.65,36.44,1.03,-25.15,-25.44,-51,556,-937,29.6,24.1,6.9,29.5,1.2,-30.5,5.73,2.38,-26.2,33.0
2012-07-30 00:45:00,0.0,1.9546,0.0011,380.57,0.35,212.8,31.4,137.99,34.47,24.65,36.44,1.00,-25.17,-25.45,-51,556,-937,29.6,23.4,6.5,29.6,1.2,-30.5,5.73,2.36,-26.3,33.0
2012-07-30 00:46:00,0.0,1.9545,0.0010,380.41,0.27,214.3,25.9,137.98,34.47,24.64,36.44,1.01,-25.36,-25.47,-51,556,-937,29.6,23.6,6.6,29.5,1.1,-30.7,5.73,2.36,-26.3,33.0
2012-07-30 00:47:00,0.0,1.9539,0.0011,380.61,0.48,208.3,28.0,137.98,34.47,24.65,36.44,1.02,-25.26,-25.47,-51,556,-937,29.6,23.2,6.4,29.5,1.1,-30.7,5.73,2.36,-26.3,33.0
2012-07-30 00:48:00,0.0,1.9518,0.0009,381.23,0.26,208.0,26.9,137.98,34.47,24.65,36.44,1.11,-25.17,-25.49,-51,556,-937,29.6,23.0,6.2,29.5,1.2,-30.6,5.73,2.37,-26.3,33.1
2012-07-30 00:49:00,0.0,1.9518,0.0009,381.20,0.34,203.0,28.0,137.98,34.47,24.64,36.44,1.02,-25.35,-25.50,-51,556,-937,29.6,22.9,6.2,29.6,1.1,-30.7,5.73,2.39,-26.3,33.1
2012-07-30 00:50:00,0.0,1.9514,0.0009,381.51,0.31,208.3,27.9,137.98,34.47,24.65,36.44,0.95,-25.38,-25.51,-51,556,-937,29.6,22.6,6.0,29.6,1.1,-30.8,5.73,2.38,-26.3,33.1
2012-07-30 00:51:00,0.0,1.9502,0.0011,381.64,0.29,212.1,29.5,137.98,34.47,24.64,36.44,1.05,-25.18,-25.52,-51,556,-937,29.6,22.3,5.8,29.6,1.1,-30.7,5.73,2.36,-26.3,33.1
2012-07-30 00:52:00,0.0,1.9476,0.0015,382.00,0.32,208.7,33.1,137.98,34.47,24.65,36.44,1.09,-25.33,-25.53,-51,556,-937,29.6,21.7,5.4,29.6,1.1,-30.7,5.73,2.36,-26.2,33.1
2012-07-30 00:53:00,0.0,1.9480,0.0013,381.80,0.32,218.8,31.2,137.98,34.47,24.65,36.43,1.04,-25.47,-25.54,-51,556,-937,29.6,22.4,5.9,29.6,1.1,-30.6,5.73,2.36,-26.2,33.1
2012-07-30 00:54:00,0.0,1.9486,0.0012,381.72,0.32,213.8,27.7,137.98,34.47,24.65,36.44,1.01,-25.20,-25.54,-51,556,-937,29.6,22.2,5.7,29.6,1.1,-30.7,5.73,2.37,-26.2,33.1
2012-07-30 00:55:00,0.0,1.9475,0.0015,381.83,0.31,213.8,30.8,137.98,34.47,24.65,36.44,1.00,-25.30,-25.56,-51,556,-937,29.6,22.0,5.7,29.6,1.1,-30.7,5.73,2.38,-26.2,33.1
2012-07-30 00:56:00,0.0,1.9469,0.0009,381.30,0.39,215.7,26.6,137.98,34.47,24.65,36.44,1.04,-25.50,-25.56,-51,556,-937,29.6,22.9,6.2,29.6,1.1,-30.7,5.73,2.38,-26.2,33.1
2012-07-30 00:57:00,0.0,1.9461,0.0011,381.29,0.54,212.7,24.4,137.98,34.48,24.65,36.44,1.06,-25.28,-25.57,-51,556,-937,29.7,22.3,5.9,29.6,1.1,-30.7,5.73,2.37,-26.2,33.1
2012-07-30 00:58:00,0.0,1.9453,0.0011,381.70,0.24,210.4,25.0,137.98,34.48,24.65,36.45,0.99,-25.30,-25.29,-51,556,-937,29.7,22.0,5.7,29.6,1.2,-30.5,5.73,2.36,-26.2,33.1
2012-07-30 00:59:00,0.0,1.9461,0.0011,381.84,0.33,212.3,27.8,137.98,34.48,24.65,36.44,0.88,-25.48,-23.76,-51,556,-937,29.7,22.1,5.7,29.5,1.2,-30.0,5.73,2.36,-26.2,33.0
2012-07-30 01:00:00,0.0,1.9459,0.0011,382.05,0.27,225.4,28.8,137.98,34.48,24.65,36.44,0.88,-25.61,-21.80,-51,556,-937,29.7,21.9,5.6,29.6,1.4,-28.7,5.73,2.38,-26.2,33.1
2012-07-30 01:01:00,0.0,1.9461,0.0011,381.84,0.29,222.0,27.0,137.98,34.48,24.64,36.44,0.90,-25.69,-19.85,-51,556,-937,29.7,22.1,5.7,29.6,1.5,-27.8,5.73,2.38,-26.2,33.1
2012-07-30 01:02:00,0.0,1.9456,0.0010,382.07,0.28,217.2,25.3,137.98,34.48,24.65,36.44,0.93,-25.74,-17.95,-51,556,-937,29.7,22.1,5.7,29.6,1.6,-27.4,5.73,2.38,-26.2,33.0
2012-07-30 01:03:00,0.0,1.9456,0.0008,381.29,0.35,220.4,29.9,137.98,34.48,24.65,36.44,0.94,-25.76,-16.17,-51,556,-937,29.7,22.8,6.2,29.6,1.6,-27.4,5.73,2.37,-26.2,33.1
2012-07-30 01:04:00,0.0,1.9454,0.0009,382.03,0.35,215.2,25.9,137.98,34.48,24.65,36.44,0.96,-25.78,-14.46,-51,556,-937,29.7,22.0,5.7,29.6,1.5,-27.6,5.73,2.36,-26.2,33.1
2012-07-30 01:05:00,0.0,1.9461,0.0010,382.01,0.31,216.7,33.3,137.98,34.48,24.65,36.44,0.95,-25.78,-12.85,-51,556,-937,29.7,22.0,5.7,29.6,1.5,-27.8,5.73,2.37,-26.2,33.1
2012-07-30 01:06:00,0.0,1.9458,0.0009,381.64,0.37,219.7,29.6,137.98,34.48,24.65,36.45,0.89,-25.78,-11.32,-51,556,-937,29.7,22.5,6.0,29.6,1.5,-28.0,5.73,2.38,-26.2,33.1
2012-07-30 01:07:00,0.0,1.9458,0.0010,381.36,0.33,216.1,24.3,137.98,34.48,24.65,36.44,0.85,-25.78,-9.87,-51,556,-937,29.7,22.4,5.9,29.6,1.4,-28.2,5.73,2.39,-26.2,33.2
2012-07-30 01:08:00,0.0,1.9475,0.0011,382.02,0.25,227.1,27.6,137.98,34.48,24.64,36.44,0.88,-25.78,-8.50,-51,556,-937,29.7,22.2,5.8,29.6,1.4,-28.4,5.73,2.38,-26.2,33.2
2012-07-30 01:09:00,0.0,1.9479,0.0009,381.95,0.24,217.5,28.7,137.98,34.48,24.65,36.44,0.91,-25.77,-7.20,-51,556,-937,29.7,22.2,5.9,29.6,1.4,-28.6,5.73,2.36,-26.1,33.2
2012-07-30 01:10:00,0.0,1.9476,0.0010,381.93,0.31,222.4,27.4,137.98,34.49,24.65,36.44,0.92,-25.77,-5.97,-51,556,-937,29.7,22.3,5.9,29.6,1.4,-28.8,5.73,2.36,-26.1,33.1
2012-07-30 01:11:00,0.0,1.9476,0.0012,381.93,0.32,224.6,27.8,137.98,34.49,24.65,36.44,0.94,-25.76,-4.81,-51,556,-937,29.7,22.1,5.8,29.7,1.4,-28.8,5.73,2.38,-26.1,33.2
2012-07-30 01:12:00,0.0,1.9471,0.0007,381.93,0.28,222.4,24.3,137.98,34.49,24.65,36.45,0.95,-25.76,-3.70,-51,556,-937,29.7,22.1,5.8,29.7,1.3,-29.0,5.73,2.38,-26.1,33.2
2012-07-30 01:13:00,0.0,1.9482,0.0014,381.75,0.41,221.2,29.9,137.98,34.49,24.65,36.44,0.96,-25.75,-2.66,-51,556,-937,29.7,22.3,5.9,29.7,1.3,-28.9,5.73,2.39,-26.1,33.2
2012-07-30 01:14:00,0.0,1.9491,0.0009,382.09,0.31,229.4,25.9,137.98,34.49,24.65,36.44,0.97,-25.74,-1.65,-51,556,-937,29.8,22.0,5.8,29.7,1.3,-29.3,5.73,2.37,-26.0,33.2
2012-07-30 01:15:00,0.0,1.9477,0.0011,382.28,0.35,229.1,27.4,137.98,34.49,24.65,36.44,0.96,-25.74,-0.70,-51,556,-937,29.8,22.0,5.8,29.7,1.3,-29.2,5.73,2.37,-26.1,33.2
2012-07-30 01:16:00,0.0,1.9482,0.0009,381.91,0.30,229.1,28.9,137.98,34.49,24.65,36.44,0.94,-25.73,0.20,-51,556,-937,29.7,22.4,6.0,29.7,1.3,-29.3,5.73,2.37,-26.0,33.1
2012-07-30 01:17:00,0.0,1.9476,0.0010,381.95,0.27,229.8,31.5,137.98,34.49,24.65,36.44,0.92,-25.72,1.05,-51,556,-937,29.7,22.5,6.0,29.7,1.3,-29.4,5.73,2.39,-26.0,33.1
2012-07-30 01:18:00,0.0,1.9472,0.0010,381.84,0.38,227.8,26.6,137.98,34.49,24.65,36.44,0.91,-25.71,1.85,-51,556,-937,29.7,22.2,5.8,29.7,1.3,-29.5,5.73,2.39,-26.0,33.2
2012-07-30 01:19:00,0.0,1.9464,0.0009,381.71,0.32,225.7,31.4,137.98,34.49,24.65,36.44,0.92,-25.70,2.58,-51,556,-937,29.7,22.6,6.1,29.7,1.3,-29.5,5.73,2.40,-26.0,33.2
2012-07-30 01:20:00,0.0,1.9450,0.0009,381.73,0.32,229.4,26.2,137.98,34.50,24.65,36.45,0.90,-25.69,3.11,-51,556,-937,29.7,22.4,6.0,29.7,1.2,-29.8,5.73,2.39,-26.0,33.2
2012-07-30 01:21:00,0.0,1.9451,0.0012,382.06,0.34,234.2,27.5,137.98,34.50,24.65,36.44,0.94,-25.68,3.35,-51,556,-937,29.7,22.1,5.8,29.7,1.3,-29.6,5.73,2.37,-26.0,33.2
2012-07-30 01:22:00,0.0,1.9409,0.0020,382.81,0.30,235.8,31.4,137.98,34.50,24.65,36.44,0.95,-25.67,3.60,-51,556,-937,29.8,21.2,5.2,29.7,1.2,-29.9,5.73,2.38,-26.0,33.2
2012-07-30 01:23:00,0.0,1.9399,0.0010,382.73,0.33,232.0,29.8,137.98,34.50,24.65,36.44,0.95,-25.66,4.05,-51,556,-937,29.7,21.4,5.3,29.7,1.2,-29.7,5.73,2.39,-26.0,33.3
2012-07-30 01:24:00,0.0,1.9388,0.0010,382.82,0.33,234.5,28.8,137.98,34.50,24.65,36.44,0.94,-25.66,4.62,-51,556,-937,29.8,21.2,5.2,29.7,1.2,-29.8,5.73,2.40,-25.9,33.3
2012-07-30 01:25:00,0.0,1.9387,0.0012,382.38,0.31,236.4,28.1,137.98,34.50,24.65,36.44,0.95,-25.65,5.22,-51,556,-938,29.8,21.8,5.6,29.7,1.2,-29.7,5.73,2.39,-25.9,33.2
2012-07-30 01:26:00,0.0,1.9390,0.0009,382.72,0.30,244.6,29.9,137.98,34.50,24.65,36.44,0.96,-25.64,5.79,-51,556,-937,29.8,21.3,5.3,29.7,1.2,-29.7,5.73,2.38,-26.0,33.2
2012-07-30 01:27:00,0.0,1.9385,0.0010,382.32,0.35,225.6,28.4,137.98,34.50,24.65,36.44,0.96,-25.63,6.32,-51,556,-938,29.8,21.6,5.5,29.7,1.3,-29.6,5.73,2.37,-25.9,33.3
2012-07-30 01:28:00,0.0,1.9383,0.0009,382.73,0.29,225.3,30.2,137.98,34.50,24.65,36.44,0.97,-25.63,6.84,-51,556,-937,29.8,21.3,5.3,29.7,1.3,-29.7,5.73,2.38,-25.9,33.3
2012-07-30 01:29:00,0.0,1.9391,0.0009,382.28,0.35,236.6,26.2,137.98,34.50,24.65,36.44,0.96,-25.61,7.33,-51,556,-938,29.8,21.4,5.3,29.7,1.3,-29.5,5.73,2.39,-25.9,33.3
2012-07-30 01:30:00,0.0,1.9381,0.0009,382.84,0.32,232.1,26.5,137.98,34.50,24.65,36.44,0.97,-25.60,7.80,-51,556,-937,29.8,20.6,4.8,29.7,1.3,-29.6,5.73,2.40,-25.9,33.3
2012-07-30 01:31:00,0.0,1.9382,0.0008,382.95,0.29,238.5,28.9,137.98,34.51,24.64,36.44,0.96,-25.59,8.26,-51,556,-937,29.8,20.6,4.8,29.7,1.2,-29.8,5.73,2.39,-25.9,33.3
2012-07-30 01:32:00,0.0,1.9383,0.0009,382.57,0.32,237.5,26.5,137.98,34.51,24.64,36.45,0.96,-25.60,8.69,-51,556,-937,29.8,21.0,5.1,29.7,1.2,-29.7,5.73,2.38,-25.9,33.2
2012-07-30 01:33:00,0.0,1.9361,0.0014,382.50,0.32,230.8,28.8,137.98,34.51,24.65,36.45,0.96,-25.59,9.11,-51,556,-937,29.8,20.8,5.0,29.7,1.2,-29.8,5.73,2.37,-25.9,33.2
2012-07-30 01:34:00,0.0,1.9345,0.0007,382.83,0.32,232.1,29.6,137.98,34.51,24.65,36.45,0.94,-25.58,9.52,-51,556,-937,29.8,20.5,4.8,29.7,1.2,-29.9,5.73,2.38,-25.9,33.2
2012-07-30 01:35:00,0.0,1.9328,0.0013,382.72,0.33,226.9,31.7,137.98,34.51,24.65,36.44,0.95,-25.58,9.92,-51,556,-937,29.8,20.8,5.0,29.7,1.2,-29.9,5.73,2.39,-25.9,33.2
2012-07-30 01:36:00,0.0,1.9325,0.0009,382.60,0.23,232.3,27.6,137.98,34.51,24.65,36.45,0.92,-25.57,10.30,-51,556,-937,29.8,20.8,5.0,29.7,1.2,-29.9,5.73,2.39,-25.9,33.2
2012-07-30 01:37:00,0.0,1.9355,0.0010,382.29,0.33,234.4,27.8,137.98,34.51,24.65,36.44,0.94,-25.56,10.67,-51,556,-938,29.8,21.4,5.4,29.7,1.2,-29.9,5.73,2.38,-25.9,33.2
2012-07-30 01:38:00,0.0,1.9361,0.0008,382.47,0.33,235.2,29.4,137.98,34.51,24.65,36.44,0.95,-25.55,11.04,-51,556,-937,29.8,21.2,5.2,29.7,1.2,-29.9,5.73,2.37,-25.9,33.2
2012-07-30 01:39:00,0.0,1.9364,0.0011,382.41,0.33,232.8,26.6,137.98,34.51,24.64,36.44,0.96,-25.54,11.39,-51,557,-937,29.8,21.0,5.1,29.7,1.2,-29.8,5.73,2.38,-25.9,33.2
2012-07-30 01:40:00,0.0,1.9369,0.0010,382.59,0.36,234.6,29.0,137.98,34.51,24.65,36.44,0.95,-25.53,11.73,-51,556,-938,29.8,21.2,5.2,29.7,1.2,-29.9,5.73,2.39,-25.9,33.2
2012-07-30 01:41:00,0.0,1.9373,0.0008,382.25,0.31,235.2,25.3,137.98,34.51,24.65,36.44,0.96,-25.52,12.06,-51,557,-937,29.8,21.4,5.4,29.7,1.2,-29.9,5.73,2.40,-25.9,33.2
2012-07-30 01:42:00,0.0,1.9364,0.0009,382.13,0.28,235.9,26.5,137.98,34.51,24.65,36.44,0.95,-25.52,12.37,-51,556,-938,29.8,21.4,5.4,29.7,1.2,-30.0,5.73,2.39,-25.9,33.3
2012-07-30 01:43:00,0.0,1.9349,0.0009,382.42,0.33,234.4,29.2,137.98,34.52,24.65,36.45,0.95,-25.51,12.68,-51,557,-937,29.8,20.9,5.0,29.7,1.2,-29.9,5.73,2.38,-25.8,33.3
2012-07-30 01:44:00,0.0,1.9354,0.0011,382.06,0.38,231.5,27.3,137.98,34.52,24.65,36.44,0.95,-25.50,12.97,-51,556,-938,29.8,21.4,5.4,29.7,1.2,-29.9,5.73,2.37,-25.8,33.3
2012-07-30 01:45:00,0.0,1.9352,0.0014,382.28,0.39,233.3,28.2,137.98,34.52,24.64,36.44,0.97,-25.49,13.25,-51,557,-937,29.8,20.9,5.0,29.8,1.2,-29.7,5.73,2.38,-25.8,33.3
2012-07-30 01:46:00,0.0,1.9333,0.0008,382.74,0.28,236.9,26.3,137.98,34.52,24.65,36.43,0.94,-25.49,13.52,-51,556,-937,29.8,20.6,4.8,29.7,1.2,-30.0,5.73,2.40,-25.8,33.3
2012-07-30 01:47:00,0.0,1.9345,0.0013,382.29,0.39,234.7,28.7,137.98,34.52,24.65,36.44,0.96,-25.48,13.78,-51,557,-938,29.8,21.3,5.3,29.8,1.2,-29.8,5.73,2.40,-25.8,33.2
2012-07-30 01:48:00,0.0,1.9349,0.0012,382.31,0.35,243.7,29.3,137.98,34.52,24.64,36.44,0.97,-25.47,14.03,-51,556,-937,29.8,21.0,5.1,29.8,1.2,-29.7,5.73,2.39,-25.8,33.3
2012-07-30 01:49:00,0.0,1.9337,0.0010,383.05,0.32,239.6,25.8,137.98,34.52,24.65,36.44,0.95,-25.47,14.27,-51,556,-938,29.8,20.3,4.6,29.8,1.2,-29.9,5.73,2.37,-25.8,33.3
2012-07-30 01:50:00,0.0,1.9334,0.0008,383.10,0.27,235.7,25.7,137.98,34.52,24.65,36.44,0.96,-25.47,14.49,-51,556,-937,29.8,20.4,4.7,29.8,1.2,-29.9,5.73,2.37,-25.8,33.2
2012-07-30 01:51:00,0.0,1.9341,0.0008,383.00,0.26,235.4,25.0,137.98,34.52,24.64,36.43,0.97,-25.47,14.71,-51,556,-938,29.8,20.5,4.8,29.8,1.2,-30.0,5.73,2.39,-25.9,33.3
2012-07-30 01:52:00,0.0,1.9337,0.0010,383.23,0.31,238.5,26.0,137.98,34.52,24.65,36.43,0.97,-25.45,14.92,-51,557,-937,29.8,20.4,4.7,29.7,1.2,-29.8,5.73,2.40,-25.9,33.3
2012-07-30 01:53:00,0.0,1.9343,0.0012,383.05,0.30,239.5,28.9,137.98,34.52,24.65,36.44,0.96,-25.45,15.12,-51,557,-938,29.8,20.5,4.8,29.7,1.2,-29.9,5.73,2.40,-25.9,33.3
2012-07-30 01:54:00,0.0,1.9348,0.0009,382.93,0.26,232.5,23.8,137.98,34.53,24.65,36.44,0.96,-25.45,15.32,-51,557,-937,29.8,20.6,4.8,29.7,1.2,-29.9,5.73,2.38,-25.9,33.3
2012-07-30 01:55:00,0.0,1.9351,0.0009,383.04,0.26,234.9,26.6,137.98,34.53,24.64,36.44,0.96,-25.45,15.49,-51,557,-938,29.8,20.5,4.7,29.7,1.2,-29.7,5.73,2.37,-25.9,33.3
2012-07-30 01:56:00,0.0,1.9351,0.0007,382.91,0.31,236.7,28.6,137.98,34.53,24.65,36.44,0.97,-25.45,15.67,-51,556,-938,29.8,20.8,5.0,29.7,1.2,-29.9,5.73,2.38,-25.9,33.3
2012-07-30 01:57:00,0.0,1.9361,0.0009,382.84,0.31,234.4,31.5,137.98,34.53,24.64,36.44,0.97,-25.44,15.83,-51,556,-937,29.8,20.9,5.1,29.7,1.3,-29.6,5.73,2.40,-25.9,33.3
2012-07-30 01:58:00,0.0,1.9353,0.0010,382.68,0.36,241.7,30.8,137.98,34.53,24.65,36.44,0.97,-25.44,16.00,-51,556,-938,29.8,21.3,5.3,29.7,1.2,-30.0,5.73,2.40,-25.9,33.2
2012-07-30 01:59:00,0.0,1.9363,0.0011,382.41,0.28,240.7,29.9,137.98,34.53,24.65,36.44,0.96,-25.43,16.15,-51,557,-937,29.8,21.6,5.5,29.7,1.2,-30.1,5.73,2.39,-25.9,33.2
2012-07-30 02:00:00,0.0,1.9364,0.0008,382.65,0.26,237.9,28.6,137.98,34.53,24.65,36.44,0.96,-25.43,16.30,-51,556,-938,29.8,21.1,5.2,29.7,1.2,-29.9,5.73,2.38,-25.9,33.2
2012-07-30 02:01:00,0.0,1.9365,0.0010,382.69,0.30,232.6,32.0,137.98,34.53,24.64,36.44,0.96,-25.42,16.44,-51,557,-937,29.8,21.1,5.2,29.8,1.2,-29.8,5.73,2.38,-25.9,33.3
2012-07-30 02:02:00,0.0,1.9365,0.0009,382.43,0.29,230.2,24.2,137.98,34.53,24.65,36.43,0.97,-25.42,16.57,-51,556,-937,29.8,21.7,5.6,29.8,1.2,-29.9,5.73,2.39,-25.9,33.2
2012-07-30 02:03:00,0.0,1.9355,0.0013,382.18,0.33,233.4,27.9,137.98,34.53,24.65,36.44,0.96,-25.41,16.70,-51,556,-938,29.8,21.7,5.6,29.7,1.2,-29.9,5.73,2.40,-25.9,33.2
2012-07-30 02:04:00,0.0,1.9341,0.0013,382.31,0.29,238.5,28.2,137.98,34.53,24.65,36.44,0.96,-25.41,16.82,-51,557,-937,29.8,21.4,5.4,29.8,1.2,-29.7,5.73,2.40,-25.9,33.2
2012-07-30 02:05:00,0.0,1.9319,0.0011,382.96,0.36,241.7,21.9,137.98,34.54,24.65,36.44,0.96,-25.41,16.94,-51,556,-938,29.8,20.4,4.7,29.8,1.2,-29.8,5.73,2.38,-25.9,33.2
2012-07-30 02:06:00,0.0,1.9304,0.0011,383.14,0.33,234.5,28.0,137.98,34.54,24.65,36.44,0.97,-25.40,17.05,-51,557,-937,29.8,20.1,4.5,29.8,1.2,-29.8,5.73,2.37,-25.9,33.1
2012-07-30 02:07:00,0.0,1.9300,0.0009,382.89,0.38,234.7,26.4,137.98,34.54,24.65,36.44,0.97,-25.40,17.16,-51,556,-937,29.8,20.9,5.0,29.8,1.2,-29.9,5.73,2.38,-25.9,33.1
2012-07-30 02:08:00,0.0,1.9312,0.0012,382.61,0.27,237.3,25.1,137.98,34.54,24.65,36.44,0.97,-25.40,17.27,-51,556,-938,29.8,21.2,5.2,29.7,1.2,-30.0,5.73,2.39,-25.9,33.2
2012-07-30 02:09:00,0.0,1.9308,0.0010,383.00,0.39,237.3,30.6,137.98,34.54,24.64,36.44,0.97,-25.40,17.36,-51,556,-937,29.8,20.3,4.6,29.8,1.2,-29.8,5.73,2.40,-25.9,33.1
2012-07-30 02:10:00,0.0,1.9298,0.0009,383.14,0.30,237.6,28.1,137.98,34.54,24.65,36.44,0.96,-25.40,17.45,-51,556,-937,29.8,20.3,4.7,29.7,1.2,-29.8,5.73,2.39,-25.9,33.2
2012-07-30 02:11:00,0.0,1.9289,0.0009,383.21,0.31,241.6,31.5,137.98,34.54,24.65,36.44,0.97,-25.38,17.55,-51,557,-938,29.8,20.4,4.6,29.7,1.2,-30.0,5.73,2.38,-25.9,33.2
2012-07-30 02:12:00,0.0,1.9284,0.0009,383.09,0.35,244.3,30.6,137.98,34.55,24.65,36.44,0.97,-25.39,17.63,-51,556,-937,29.8,20.3,4.6,29.7,1.2,-29.7,5.73,2.38,-25.9,33.2
2012-07-30 02:13:00,0.0,1.9279,0.0010,383.45,0.36,236.1,24.6,137.98,34.55,24.65,36.44,0.97,-25.38,17.71,-51,556,-938,29.8,19.9,4.3,29.8,1.2,-29.9,5.73,2.38,-25.8,33.2
2012-07-30 02:14:00,0.0,1.9290,0.0008,383.54,0.26,239.5,27.6,137.98,34.55,24.64,36.44,0.98,-25.38,17.80,-51,556,-937,29.8,20.0,4.4,29.8,1.2,-29.9,5.73,2.40,-25.8,33.2
2012-07-30 02:15:00,0.0,1.9306,0.0013,383.39,0.28,242.3,26.7,137.98,34.55,24.65,36.44,0.96,-25.38,17.88,-51,556,-938,29.8,20.0,4.5,29.8,1.2,-30.2,5.73,2.40,-25.8,33.2
2012-07-30 02:16:00,0.0,1.9301,0.0009,383.26,0.33,237.6,29.4,137.98,34.55,24.65,36.45,0.96,-25.38,17.94,-51,557,-937,29.8,20.3,4.7,29.7,1.2,-30.0,5.73,2.38,-25.9,33.2
2012-07-30 02:17:00,0.0,1.9337,0.0013,383.38,0.31,239.8,26.3,137.98,34.55,24.64,36.43,0.96,-25.38,18.01,-51,557,-937,29.8,20.6,4.9,29.8,1.2,-30.1,5.73,2.37,-25.8,33.3
2012-07-30 02:18:00,0.0,1.9382,0.0012,383.47,0.29,240.3,24.6,137.98,34.55,24.64,36.44,0.97,-25.37,18.08,-51,557,-938,29.8,20.8,5.0,29.8,1.2,-30.2,5.73,2.38,-25.8,33.2
2012-07-30 02:19:00,0.0,1.9386,0.0010,383.57,0.33,240.2,27.5,137.98,34.55,24.65,36.44,0.97,-25.37,18.14,-51,557,-937,29.9,20.9,5.1,29.8,1.2,-30.2,5.73,2.39,-25.9,33.3
2012-07-30 02:20:00,0.0,1.9387,0.0010,383.41,0.26,241.4,29.0,137.98,34.55,24.65,36.43,0.96,-25.37,18.20,-51,556,-938,29.8,21.1,5.2,29.8,1.2,-29.9,5.73,2.40,-25.8,33.3